Hourly Data Report for October 03, 2014

All times are specified in Local Standard Time (LST). Add 1 hour to adjust for Daylight Saving Time where and when it is observed.

TORONTO INTL A
ONTARIO

43°40'36.000" N
79°37'50.000" W
173.40 m
6158731
71624
YYZ

Download Data

Hourly Data (October 2014)
Hourly Data Report for October 3, 2014
Temp Definition
°C
Dew Point Temp Definition
°C
Rel Hum Definition
%
Wind Dir Definition
10's deg

Wind Spd Definition
km/h
Visibility Definition
km
Stn Press Definition
kPa
Hmdx Definition


Wind Chill Definition


Weather Definition


TIME
00:00 Legend Double Dagger 16.6 14.3 86 14 13 16.1 99.29     LegendNANA
01:00 Legend Double Dagger 16.4 14.3 87 15 9 16.1 99.26     Mostly Cloudy
02:00 Legend Double Dagger 16.5 14.2 86 14 11 16.1 99.21     LegendNANA
03:00 Legend Double Dagger 16.5 14.0 85 12 15 16.1 99.12     LegendNANA
04:00 Legend Double Dagger 16.7 14.0 84 12 13 16.1 99.03     Cloudy
05:00 Legend Double Dagger 16.5 13.8 84 13 18 16.1 98.96     LegendNANA
06:00 Legend Double Dagger 16.3 13.8 85 12 15 16.1 98.90     LegendNANA
07:00 Legend Double Dagger 16.2 13.7 85 12 16 19.3 98.82     Mostly Cloudy
08:00 Legend Double Dagger 17.2 14.0 81 12 21 19.3 98.73     LegendNANA
09:00 Legend Double Dagger 18.4 14.2 76 13 23 24.1 98.65     LegendNANA
10:00 Legend Double Dagger 19.3 14.6 74 13 21 19.3 98.52     Mostly Cloudy
11:00 Legend Double Dagger 20.6 15.5 72 12 21 19.3 98.34 25   LegendNANA
12:00 Legend Double Dagger 23.0 15.2 61 14 25 19.3 98.21 27   LegendNANA
13:00 Legend Double Dagger 21.4 15.1 67 16 22 19.3 98.13 25   Cloudy
14:00 Legend Double Dagger 18.9 16.9 88 19 22 12.9 98.14     Rain
15:00 Legend Double Dagger 18.7 17.4 92 19 24 12.9 98.08     Rain
16:00 Legend Double Dagger 18.8 17.2 90 17 25 12.9 98.01     Rain
17:00 Legend Double Dagger 17.6 16.0 90 21 22 9.7 98.04     Rain,Fog
18:00 Legend Double Dagger 18.3 17.0 92 17 16 16.1 98.00     LegendNANA
19:00 Legend Double Dagger 18.0 16.9 93 16 18 12.9 97.95     Rain
20:00 Legend Double Dagger 16.9 14.9 88 26 17 24.1 98.04     Rain Showers
21:00 Legend Double Dagger 16.3 14.9 91 26 16 24.1 98.04     Rain Showers
22:00 Legend Double Dagger 15.5 13.0 85 28 8 24.1 98.00     Rain Showers
23:00 Legend Double Dagger 14.9 13.1 89 27 6 24.1 97.94     Rain Showers

Notes on Data Quality.

Legend

  • E = Estimated
  • M = Missing
  • NA = Not Available
  • ‡ = Partner data that is not subject to review by the National Climate Archives
Date modified: